• En España
  • Lista de países
  • Para 7 días
  • Temperatura del agua
  • Mapa Satelital
  • El tiempo en el mapa
  • Informadores
  • user-avatar
    Iniciar sesión

    Tiempo cada hora Klyuchevka

    Hoy, 22 Julio, Domingo

    Tiempo Temperatura Precipitaciones Viento Presión Humedad
    00:00 +19°C° 0,1 mm 3 mps 744 mmHg 97%
    01:00 +18°C° 0,1 mm 2 mps 744 mmHg 98%
    02:00 +19°C° 0 mm 1 mps 745 mmHg 98%
    03:00 +18°C° 0,1 mm 2 mps 745 mmHg 98%
    04:00 +18°C° 0,1 mm 2 mps 745 mmHg 98%
    05:00 +18°C° 0,1 mm 2 mps 745 mmHg 98%
    06:00 +19°C° 0 mm 3 mps 745 mmHg 96%
    07:00 +19°C° 0 mm 3 mps 745 mmHg 95%
    08:00 +20°C° 0 mm 3 mps 745 mmHg 94%
    09:00 +21°C° 0 mm 3 mps 745 mmHg 90%
    10:00 +21°C° 0 mm 3 mps 745 mmHg 87%
    11:00 +22°C° 0 mm 3 mps 746 mmHg 84%
    12:00 +22°C° 0 mm 3 mps 745 mmHg 80%
    13:00 +24°C° 0 mm 3 mps 745 mmHg 77%
    14:00 +25°C° 0 mm 4 mps 745 mmHg 73%
    15:00 +25°C° 0,1 mm 3 mps 745 mmHg 74%
    16:00 +24°C° 0,1 mm 3 mps 745 mmHg 76%
    17:00 +24°C° 0,1 mm 2 mps 745 mmHg 77%
    18:00 +23°C° 0 mm 2 mps 745 mmHg 83%
    19:00 +21°C° 0 mm 2 mps 745 mmHg 88%
    20:00 +21°C° 0 mm 1 mps 746 mmHg 93%
    21:00 +20°C° 0 mm 1 mps 746 mmHg 94%
    22:00 +20°C° 0 mm 1 mps 746 mmHg 94%
    23:00 +19°C° 0 mm 1 mps 746 mmHg 95%

    Mañana, 23 Julio, Lunes

    Tiempo Temperatura Precipitaciones Viento Presión Humedad
    00:00 +19°C° 0 mm 1 mps 746 mmHg 96%
    01:00 +19°C° 0 mm 1 mps 746 mmHg 96%
    02:00 +18°C° 0 mm 2 mps 746 mmHg 97%
    03:00 +18°C° 0 mm 2 mps 746 mmHg 96%
    04:00 +18°C° 0 mm 2 mps 747 mmHg 96%
    05:00 +18°C° 0 mm 2 mps 747 mmHg 96%
    06:00 +19°C° 0 mm 3 mps 747 mmHg 90%
    07:00 +20°C° 0 mm 3 mps 747 mmHg 85%
    08:00 +21°C° 0 mm 3 mps 747 mmHg 80%
    09:00 +22°C° 0,1 mm 3 mps 747 mmHg 76%
    10:00 +22°C° 0,1 mm 4 mps 747 mmHg 73%
    11:00 +23°C° 0,1 mm 4 mps 747 mmHg 69%
    12:00 +25°C° 0 mm 4 mps 747 mmHg 66%
    13:00 +25°C° 0 mm 4 mps 747 mmHg 63%
    14:00 +26°C° 0 mm 4 mps 747 mmHg 60%
    15:00 +25°C° 0,1 mm 4 mps 747 mmHg 63%
    16:00 +25°C° 0,1 mm 3 mps 747 mmHg 65%
    17:00 +24°C° 0,1 mm 3 mps 747 mmHg 68%
    18:00 +22°C° 0 mm 3 mps 747 mmHg 74%
    19:00 +20°C° 0 mm 2 mps 747 mmHg 79%
    20:00 +19°C° 0 mm 2 mps 747 mmHg 85%
    21:00 +18°C° 0 mm 2 mps 747 mmHg 87%
    22:00 +17°C° 0 mm 2 mps 748 mmHg 90%
    23:00 +16°C° 0 mm 2 mps 748 mmHg 92%

    Pasado mañana, 24 Julio, Martes

    Tiempo Temperatura Precipitaciones Viento Presión Humedad
    00:00 +16°C° 0 mm 2 mps 748 mmHg 94%
    01:00 +15°C° 0 mm 2 mps 748 mmHg 95%
    02:00 +15°C° 0 mm 2 mps 748 mmHg 96%
    03:00 +15°C° 0 mm 2 mps 748 mmHg 95%
    04:00 +14°C° 0 mm 3 mps 748 mmHg 94%
    05:00 +14°C° 0 mm 3 mps 748 mmHg 93%
    06:00 +16°C° 0,1 mm 3 mps 748 mmHg 92%
    07:00 +16°C° 0,1 mm 3 mps 748 mmHg 92%
    08:00 +17°C° 0,1 mm 3 mps 748 mmHg 92%
    09:00 +17°C° 0,1 mm 3 mps 748 mmHg 91%
    10:00 +18°C° 0,1 mm 3 mps 748 mmHg 90%
    11:00 +18°C° 0,1 mm 3 mps 749 mmHg 88%
    12:00 +19°C° 0,1 mm 3 mps 749 mmHg 87%
    13:00 +20°C° 0,1 mm 3 mps 749 mmHg 86%
    14:00 +20°C° 0,1 mm 3 mps 748 mmHg 85%
    15:00 +20°C° 0 mm 3 mps 748 mmHg 86%
    16:00 +21°C° 0 mm 3 mps 748 mmHg 86%
    17:00 +21°C° 0 mm 3 mps 748 mmHg 87%
    18:00 +20°C° 0 mm 2 mps 749 mmHg 90%
    19:00 +20°C° 0 mm 2 mps 749 mmHg 93%
    20:00 +19°C° 0 mm 2 mps 749 mmHg 95%
    21:00 +19°C° 0 mm 2 mps 749 mmHg 96%
    22:00 +19°C° 0 mm 2 mps 749 mmHg 97%
    23:00 +19°C° 0 mm 2 mps 749 mmHg 97%

    25 Julio, Miércoles

    Tiempo Temperatura Precipitaciones Viento Presión Humedad
    00:00 +19°C° 0,1 mm 2 mps 749 mmHg 97%
    01:00 +18°C° 0,1 mm 2 mps 749 mmHg 97%
    02:00 +18°C° 0,1 mm 2 mps 749 mmHg 98%
    03:00 +19°C° 0,5 mm 2 mps 749 mmHg 98%
    04:00 +19°C° 0,5 mm 2 mps 750 mmHg 98%
    05:00 +19°C° 0,5 mm 2 mps 750 mmHg 98%
    06:00 +20°C° 0,1 mm 2 mps 750 mmHg 96%
    07:00 +21°C° 0,1 mm 2 mps 750 mmHg 94%
    08:00 +22°C° 0,1 mm 3 mps 751 mmHg 92%
    09:00 +24°C° 0 mm 3 mps 751 mmHg 81%
    10:00 +26°C° 0 mm 3 mps 751 mmHg 70%
    11:00 +28°C° 0 mm 4 mps 751 mmHg 59%
    12:00 +29°C° 0 mm 4 mps 751 mmHg 55%
    13:00 +29°C° 0 mm 4 mps 751 mmHg 51%
    14:00 +30°C° 0 mm 4 mps 750 mmHg 47%
    15:00 +30°C° 0 mm 3 mps 750 mmHg 51%
    16:00 +29°C° 0 mm 3 mps 750 mmHg 55%
    17:00 +29°C° 0 mm 2 mps 750 mmHg 59%
    18:00 +27°C° 0 mm 2 mps 751 mmHg 65%
    19:00 +25°C° 0 mm 2 mps 751 mmHg 71%
    20:00 +23°C° 0 mm 2 mps 751 mmHg 78%
    21:00 +21°C° 0 mm 2 mps 751 mmHg 79%
    22:00 +20°C° 0 mm 2 mps 751 mmHg 81%
    23:00 +19°C° 0 mm 2 mps 751 mmHg 83%

    26 Julio, Jueves

    Tiempo Temperatura Precipitaciones Viento Presión Humedad
    00:00 +18°C° 0 mm 2 mps 752 mmHg 83%
    01:00 +18°C° 0 mm 2 mps 752 mmHg 84%
    02:00 +17°C° 0 mm 2 mps 752 mmHg 84%
    03:00 +18°C° 0 mm 2 mps 752 mmHg 83%
    04:00 +18°C° 0 mm 2 mps 752 mmHg 83%
    05:00 +18°C° 0 mm 2 mps 753 mmHg 82%
    06:00 +20°C° 0 mm 2 mps 753 mmHg 78%
    07:00 +21°C° 0 mm 2 mps 753 mmHg 74%
    08:00 +24°C° 0 mm 2 mps 753 mmHg 70%
    09:00 +26°C° 0 mm 3 mps 753 mmHg 62%
    10:00 +28°C° 0 mm 3 mps 753 mmHg 55%
    11:00 +30°C° 0 mm 4 mps 753 mmHg 47%
    12:00 +30°C° 0 mm 4 mps 753 mmHg 45%
    13:00 +32°C° 0 mm 4 mps 753 mmHg 44%
    14:00 +32°C° 0 mm 4 mps 753 mmHg 42%
    15:00 +31°C° 0 mm 3 mps 753 mmHg 48%
    16:00 +30°C° 0 mm 3 mps 753 mmHg 53%
    17:00 +29°C° 0 mm 2 mps 753 mmHg 58%
    18:00 +27°C° 0 mm 2 mps 753 mmHg 64%
    19:00 +26°C° 0 mm 2 mps 753 mmHg 71%
    20:00 +24°C° 0 mm 2 mps 753 mmHg 77%
    21:00 +23°C° 0 mm 2 mps 754 mmHg 79%
    22:00 +21°C° 0 mm 2 mps 754 mmHg 81%
    23:00 +20°C° 0 mm 2 mps 754 mmHg 83%

    27 Julio, Viernes

    Tiempo Temperatura Precipitaciones Viento Presión Humedad
    00:00 +20°C° 0 mm 2 mps 754 mmHg 84%
    01:00 +20°C° 0 mm 2 mps 754 mmHg 86%
    02:00 +19°C° 0 mm 2 mps 754 mmHg 87%
    03:00 +20°C° 0,2 mm 2 mps 754 mmHg 88%
    04:00 +20°C° 0,2 mm 2 mps 755 mmHg 89%
    05:00 +20°C° 0,2 mm 2 mps 755 mmHg 90%
    06:00 +21°C° 0 mm 2 mps 755 mmHg 85%
    07:00 +24°C° 0 mm 2 mps 755 mmHg 79%
    08:00 +26°C° 0 mm 2 mps 755 mmHg 74%
    09:00 +27°C° 0 mm 3 mps 755 mmHg 67%
    10:00 +29°C° 0 mm 3 mps 755 mmHg 60%
    11:00 +30°C° 0 mm 3 mps 755 mmHg 53%
    12:00 +31°C° 0 mm 3 mps 755 mmHg 52%
    13:00 +31°C° 0 mm 3 mps 755 mmHg 51%
    14:00 +31°C° 0 mm 3 mps 755 mmHg 50%
    15:00 +31°C° 0,1 mm 3 mps 755 mmHg 54%
    16:00 +30°C° 0,1 mm 2 mps 755 mmHg 59%
    17:00 +29°C° 0,1 mm 2 mps 755 mmHg 63%
    18:00 +27°C° 0,6 mm 2 mps 755 mmHg 71%
    19:00 +25°C° 0,6 mm 2 mps 755 mmHg 78%
    20:00 +23°C° 0,6 mm 2 mps 755 mmHg 86%
    21:00 +23°C° 0 mm 2 mps 755 mmHg 87%
    22:00 +21°C° 0 mm 2 mps 755 mmHg 88%
    23:00 +20°C° 0 mm 2 mps 755 mmHg 90%
    Mostrar más